Date String (YYYY-MM-DD hh:mm:ss) UTC,Instrument flags,absolute air pressure of the measurement (hPa),sample flow rate (lpm),inlet stack bypass flow (lpm),air temperature of the measurement (°C),ambient temperature measured by the external sensor (°C),aerosol sample conditioner tube jacket temperature (°C),OPC LED temperature (°C),internal box temperature (°C),relative humidity of the measurement (%),span deviation,mass concentration of particles derived from Lorenz-Mie calculation of OPC scattering (μg/m³),mass concentration of particles derived from Lorenz-Mie calculation of OPC scattering (μg/m³),mass concentration of particles derived from Lorenz-Mie calculation of OPC scattering (μg/m³)
DateTimeUTC,F1_M11,P_M11,Q1_M11,Q2_M11,T1_M11,T2_M11,T3_M11,T4_M11,T5_M11,U1_M11,ZSPAN_M11,X0_M11,X2_M11,X1_M11
2023-06-10 02:00:00,SystemResetWarning,0830.1,5.00,000.00,029.9,025.0,000.0,038.3,031.4,20.6,0000.0,0007.15,0002.96,0002.09
2023-06-10 02:01:00,SystemResetWarning,0830.1,5.01,000.00,029.8,024.9,000.0,038.3,031.2,20.6,0000.0,0006.50,0002.98,0002.11
2023-06-10 02:02:00,SystemResetWarning,0830.1,5.00,000.00,029.7,025.2,000.0,038.3,030.9,22.5,0000.0,0005.86,0003.01,0002.13
2023-06-10 02:03:00,SystemResetWarning,0830.1,4.99,000.00,029.6,025.6,000.0,038.2,030.9,22.8,0000.0,0005.84,0003.00,0002.13
2023-06-10 02:04:00,SystemResetWarning,0830.1,5.00,000.00,029.6,026.0,000.0,038.2,030.8,22.2,0000.0,0005.67,0003.05,0002.14
2023-06-10 02:05:00,SystemResetWarning,0830.1,5.00,000.00,029.5,026.4,000.0,038.2,030.9,22.2,0000.0,0005.89,0003.11,0002.17
2023-06-10 02:06:00,SystemResetWarning,0830.1,5.01,000.00,029.5,026.7,000.0,038.2,030.9,21.9,0000.0,0005.92,0003.14,0002.19
2023-06-10 02:07:00,SystemResetWarning,0830.1,5.01,000.00,029.5,027.0,000.0,038.2,030.9,22.3,0000.0,0006.18,0003.17,0002.20
2023-06-10 02:08:00,SystemResetWarning,0830.1,4.99,000.00,029.5,027.2,000.0,038.2,030.9,21.9,0000.0,0006.60,0003.19,0002.22
2023-06-10 02:09:00,SystemResetWarning,0830.1,4.99,000.00,029.5,027.4,000.0,038.1,030.9,23.0,0000.0,0007.39,0003.23,0002.25
2023-06-10 02:10:00,SystemResetWarning,0830.1,5.00,000.00,029.5,027.5,000.0,038.1,030.9,24.6,0000.0,0007.27,0003.25,0002.26
2023-06-10 02:11:00,SystemResetWarning,0830.1,5.00,000.00,029.5,027.6,000.0,038.1,031.0,25.1,0000.0,0007.41,0003.25,0002.27
2023-06-10 02:12:00,SystemResetWarning,0830.1,5.00,000.00,029.5,027.7,000.0,038.1,031.0,25.1,0000.0,0008.40,0003.30,0002.28
2023-06-10 02:13:00,SystemResetWarning,0830.1,5.00,000.00,029.5,027.8,000.0,038.1,031.0,24.7,0000.0,0009.06,0003.32,0002.28
2023-06-10 02:14:00,SystemResetWarning,0830.1,5.01,000.00,029.5,027.8,000.0,038.1,031.0,24.8,0000.0,0009.18,0003.38,0002.30
2023-06-10 02:15:00,SystemResetWarning,0830.1,5.01,000.00,029.5,027.9,000.0,038.1,031.0,25.2,0000.0,0009.22,0003.40,0002.32
2023-06-10 02:16:00,SystemResetWarning,0830.1,5.01,000.00,029.5,027.9,000.0,038.1,031.1,25.5,0000.0,0009.30,0003.42,0002.34
2023-06-10 02:17:00,SystemResetWarning,0830.1,4.99,000.00,029.5,027.9,000.0,038.1,031.0,25.9,0000.0,0009.81,0003.48,0002.37
2023-06-10 02:18:00,SystemResetWarning,0830.2,4.99,000.00,029.5,027.9,000.0,038.1,031.1,25.7,0000.0,0010.04,0003.51,0002.41
2023-06-10 02:19:00,SystemResetWarning,0830.3,4.99,000.00,029.5,027.9,000.0,038.1,031.0,26.0,0000.0,0010.15,0003.56,0002.43
2023-06-10 02:20:00,SystemResetWarning,0830.3,5.01,000.00,029.5,028.0,000.0,038.1,031.0,26.5,0000.0,0009.95,0003.61,0002.47
2023-06-10 02:21:00,SystemResetWarning,0830.2,5.01,000.00,029.5,028.0,000.0,038.1,031.1,26.9,0000.0,0010.06,0003.64,0002.49
2023-06-10 02:22:00,SystemResetWarning,0830.2,5.00,000.00,029.5,028.0,000.0,038.1,031.1,27.0,0000.0,0010.01,0003.65,0002.51
2023-06-10 02:23:00,SystemResetWarning,0830.2,5.00,000.00,029.6,028.0,000.0,038.1,031.1,27.3,0000.0,0009.05,0003.60,0002.53
2023-06-10 02:24:00,SystemResetWarning,0830.2,5.00,000.00,029.6,028.1,000.0,038.1,031.1,27.3,0000.0,0008.29,0003.59,0002.54
2023-06-10 02:25:00,SystemResetWarning,0830.2,5.00,000.00,029.6,028.1,000.0,038.1,031.2,27.3,0000.0,0008.19,0003.55,0002.54
2023-06-10 02:26:00,SystemResetWarning,0830.2,5.00,000.00,029.6,028.1,000.0,038.1,031.2,27.6,0000.0,0008.37,0003.57,0002.57
2023-06-10 02:27:00,SystemResetWarning,0830.3,5.00,000.00,029.6,028.1,000.0,038.2,031.2,27.4,0000.0,0008.31,0003.54,0002.57
2023-06-10 02:28:00,SystemResetWarning,0830.2,5.00,000.00,029.6,028.1,000.0,038.2,031.2,27.0,0000.0,0008.39,0003.52,0002.59
2023-06-10 02:29:00,SystemResetWarning,0830.2,4.99,000.00,029.6,028.1,000.0,038.2,031.2,27.0,0000.0,0009.10,0003.52,0002.60
2023-06-10 02:30:00,SystemResetWarning,0830.2,5.00,000.00,029.7,028.1,000.0,038.2,031.2,27.0,0000.0,0009.94,0003.52,0002.61
2023-06-10 02:31:00,SystemResetWarning,0830.1,5.00,000.00,029.7,028.1,000.0,038.2,031.2,26.9,0000.0,0009.80,0003.52,0002.60
2023-06-10 02:32:00,SystemResetWarning,0830.1,5.00,000.00,029.7,028.2,000.0,038.2,031.2,26.8,0000.0,0009.68,0003.49,0002.60
2023-06-10 02:33:00,SystemResetWarning,0830.1,5.00,000.00,029.7,028.2,000.0,038.2,031.2,26.6,0000.0,0009.84,0003.53,0002.61
2023-06-10 02:34:00,SystemResetWarning,0830.2,5.00,000.00,029.7,028.2,000.0,038.2,031.2,26.5,0000.0,0009.94,0003.54,0002.61
2023-06-10 02:35:00,SystemResetWarning,0830.2,5.00,000.00,029.7,028.2,000.0,038.2,031.2,26.3,0000.0,0010.09,0003.57,0002.63
2023-06-10 02:36:00,SystemResetWarning,0830.3,5.00,000.00,029.7,028.2,000.0,038.2,031.1,26.4,0000.0,0010.03,0003.55,0002.62
2023-06-10 02:37:00,SystemResetWarning,0830.2,4.99,000.00,029.7,028.1,000.0,038.2,031.1,26.5,0000.0,0009.80,0003.53,0002.62
2023-06-10 02:38:00,SystemResetWarning,0830.2,5.00,000.00,029.7,028.1,000.0,038.2,031.1,26.7,0000.0,0010.38,0003.56,0002.64
2023-06-10 02:39:00,SystemResetWarning,0830.2,5.00,000.00,029.7,028.1,000.0,038.2,031.1,26.5,0000.0,0010.40,0003.58,0002.64
2023-06-10 02:40:00,SystemResetWarning,0830.2,5.01,000.00,029.7,028.1,000.0,038.2,031.1,26.6,0000.0,0009.49,0003.56,0002.64
2023-06-10 02:41:00,SystemResetWarning,0830.2,5.01,000.00,029.6,028.1,000.0,038.2,031.1,26.5,0000.0,0008.66,0003.55,0002.65
2023-06-10 02:42:00,SystemResetWarning,0830.2,5.01,000.00,029.6,028.1,000.0,038.2,031.1,26.2,0000.0,0008.90,0003.54,0002.67
2023-06-10 02:43:00,SystemResetWarning,0830.3,5.00,000.00,029.6,028.1,000.0,038.2,031.0,26.1,0000.0,0008.96,0003.53,0002.69
2023-06-10 02:44:00,SystemResetWarning,0830.2,5.00,000.00,029.6,028.1,000.0,038.2,031.0,26.0,0000.0,0008.78,0003.50,0002.68
2023-06-10 02:45:00,SystemResetWarning,0830.3,5.00,000.00,029.6,028.1,000.0,038.2,031.0,26.0,0000.0,0008.67,0003.49,0002.66
2023-06-10 02:46:00,SystemResetWarning,0830.2,5.00,000.00,029.6,028.1,000.0,038.2,031.1,25.6,0000.0,0008.60,0003.50,0002.66
2023-06-10 02:47:00,SystemResetWarning,0830.2,4.99,000.00,029.6,028.1,000.0,038.2,031.1,25.4,0000.0,0009.04,0003.55,0002.68
2023-06-10 02:48:00,SystemResetWarning,0830.2,5.00,000.00,029.6,028.1,000.0,038.2,031.1,25.6,0000.0,0009.34,0003.58,0002.69
2023-06-10 02:49:00,SystemResetWarning,0830.2,5.00,000.00,029.6,028.1,000.0,038.2,031.1,25.4,0000.0,0009.04,0003.60,0002.69
2023-06-10 02:50:00,SystemResetWarning,0830.2,5.00,000.00,029.6,028.1,000.0,038.2,031.1,25.3,0000.0,0008.71,0003.60,0002.68
2023-06-10 02:51:00,SystemResetWarning,0830.2,5.01,000.00,029.6,028.1,000.0,038.2,031.0,25.3,0000.0,0009.36,0003.61,0002.68
2023-06-10 02:52:00,SystemResetWarning,0830.3,5.00,000.00,029.6,028.1,000.0,038.2,031.0,25.3,0000.0,0009.54,0003.62,0002.69
2023-06-10 02:53:00,SystemResetWarning,0830.2,5.00,000.00,029.6,028.1,000.0,038.2,031.1,25.4,0000.0,0009.55,0003.63,0002.68
2023-06-10 02:54:00,SystemResetWarning,0830.3,5.00,000.00,029.6,028.1,000.0,038.2,031.0,25.4,0000.0,0009.80,0003.63,0002.67
2023-06-10 02:55:00,SystemResetWarning,0830.3,5.00,000.00,029.6,028.1,000.0,038.2,031.0,25.2,0000.0,0009.92,0003.66,0002.68
2023-06-10 02:56:00,SystemResetWarning,0830.3,4.99,000.00,029.6,028.1,000.0,038.2,031.0,25.2,0000.0,0010.01,0003.69,0002.71
2023-06-10 02:57:00,SystemResetWarning,0830.3,5.00,000.00,029.6,028.1,000.0,038.2,031.0,25.3,0000.0,0010.19,0003.70,0002.71
2023-06-10 02:58:00,SystemResetWarning,0830.2,5.00,000.00,029.6,028.1,000.0,038.2,031.0,25.3,0000.0,0010.96,0003.71,0002.70
2023-06-10 02:59:00,SystemResetWarning,0830.2,5.00,000.00,029.6,028.1,000.0,038.2,031.1,25.3,0000.0,0010.91,0003.73,0002.68
